Back to catalog

IMECE

AliveScienceSSO
NORAD 56178·PAYLOAD·🇹🇷 Turkey

Launched Apr 15, 2023 from Vandenberg Space Force Base

Loading…

Next Passes (next 24 hours)

TLE

FreshSource: Space-Track

Epoch: Sep 14, 2026, 13:46 UTC

1 56178U 23054A   26257.57426853  .00000221  00000-0  49173-4 0  9996
2 56178  98.1116 161.3550 0008331 245.9034 114.1298 14.65896273183502

Track IMECE in real time with AllMySat

Download on the App Store